Weather in Punta Gorda

Belize     16°05′53″N   88°48′37″W
temp.,
°C
wind,
m/s
gust,
m/s
humid.,
%
clouds,
%
prec.,
mm/h
press.,
hPa
HPBL,
m
14 april, wed
wed1400:00+27ne6784100 1.6 1012593
03:00+27ne7884100 1.4 1011694
06:00+27ne6884100 2.6 1013609
09:00+28ne8982100 1.1 1014868
12:00+28ene91085100 2.6 1013765
15:00+28ene91079100 0.9 1011924
18:00+27ene8879100 1.1 1011950
21:00+27ene6780100 0.3 1013721
15 april, thu
thu1500:00+27ene678290 0.6 1012725
03:00+27ene5782100 0.4 1010702
06:00+26ne4581100 3.3 1012625
09:00+27ene678096 1.1 1013853
12:00+28ene5676100 2.9 1011810
15:00+28e567698 0.0 1008582
18:00+27ene678038 0.0 1008567
21:00+27ene6680100 0.0 1011750
16 april, fri
fri1600:00+27ene668150 0.2 1010721
03:00+27ene4582100 0.3 1008632
06:00+27ene458273 0.6 1009634
09:00+28ene237886 0.2 1011476
12:00+28ene4377100 0.3 1008457
15:00+28ene54766 0.0 1005356
18:00+28ene898259 0.0 1006486
21:00+28ene788414 0.0 1008674
17 april, sat
sat1700:00+27nne458210 0.0 1008564
03:00+26nne339056 0.0 1007292
06:00+25nnw329252 0.0 1008192
09:00+27nne118280 0.0 1009287
12:00+28ene337714 0.0 1007355
15:00+30ene66725 0.0 1004252
18:00+29e811820 0.0 1005383
21:00+28ne478242 0.0 1009445
18 april, sun
sun1800:00+26n459163 0.0 1008309
03:00+27nne349241 0.1 1007284
06:00+25wnw339439 0.9 1009159
09:00+29w357746 0.1 1011553
12:00+32s12626 0.1 1009405
15:00+33ese43602 0.0 1005420
18:00+25n458116 0.4 1008219
21:00+26ene456922 0.7 1011348